| time (UTC) | temp C | wind direction | speed KPH | gust KPH | rain 1hr cm | rain 24hr cm | rain mn cm | humidity % | barometer mb |
| 20260508053016 | 3 | 160 | 0.0 | 3.2 | 0.00 | 0.00 | 0.00 | 91 | 1014.4 |
| 20260508051513 | 3 | 159 | 0.0 | 0.0 | 0.00 | 0.00 | 0.00 | 91 | 1014.4 |
| 20260508050010 | 3 | 159 | 1.6 | 4.8 | 0.00 | 0.00 | 0.00 | 90 | 1014.4 |
| 20260508044508 | 4 | 159 | 0.0 | 0.0 | 0.00 | 0.00 | 0.00 | 90 | 1014.5 |
| 20260508043006 | 4 | 159 | 0.0 | 0.0 | 0.00 | 0.00 | 0.00 | 89 | 1014.5 |
| 20260508041602 | 5 | 158 | 0.0 | 0.0 | 0.00 | 0.00 | 0.00 | 88 | 1014.4 |
| 20260508040059 | 5 | 158 | 0.0 | 0.0 | 0.00 | 0.00 | 0.00 | 87 | 1014.4 |
| 20260508034611 | 5 | 158 | 0.0 | 0.0 | 0.00 | 0.00 | 0.00 | 87 | 1014.3 |
| 20260508033054 | 6 | 157 | 0.0 | 0.0 | 0.00 | 0.00 | 0.00 | 84 | 1014.4 |
| 20260508031550 | 6 | 157 | 0.0 | 3.2 | 0.00 | 0.00 | 0.00 | 84 | 1014.4 |
| 20260508030047 | 6 | 157 | 0.0 | 6.4 | 0.00 | 0.00 | 0.00 | 83 | 1014.3 |
| 20260508024544 | 7 | 157 | 0.0 | 6.4 | 0.00 | 0.00 | 0.00 | 79 | 1014.2 |
| 20260508023039 | 7 | 155 | 0.0 | 0.0 | 0.00 | 0.00 | 0.00 | 76 | 1014.0 |
| 20260508021505 | 8 | 155 | 0.0 | 0.0 | 0.00 | 0.00 | 0.00 | 74 | 1013.8 |
| 20260508020004 | 9 | 155 | 0.0 | 3.2 | 0.00 | 0.00 | 0.00 | 71 | 1013.7 |
| 20260508014533 | 10 | 155 | 1.6 | 3.2 | 0.00 | 0.00 | 0.00 | 69 | 1013.3 |
| 20260508013039 | 10 | 155 | 0.0 | 3.2 | 0.00 | 0.00 | 0.00 | 65 | 1013.2 |
| 20260508011502 | 11 | 155 | 0.0 | 0.0 | 0.00 | 0.00 | 0.00 | 61 | 1012.9 |
| 20260508010002 | 13 | 155 | 0.0 | 3.2 | 0.00 | 0.00 | 0.00 | 53 | 1012.6 |
| 20260508004600 | 13 | 155 | 0.0 | 4.8 | 0.00 | 0.00 | 0.00 | 48 | 1012.7 |
| 20260508003059 | 14 | 156 | 3.2 | 8.0 | 0.00 | 0.00 | 0.00 | 46 | 1012.5 |
| 20260508001621 | 15 | 157 | 0.0 | 3.2 | 0.00 | 0.00 | 0.00 | 44 | 1012.3 |
| 20260508000100 | 16 | 144 | 0.0 | 9.7 | 0.00 | 0.00 | 0.00 | 39 | 1012.0 |
| 20260507234556 | 17 | 182 | 1.6 | 8.0 | 0.00 | 0.00 | 0.00 | 36 | 1011.8 |
| 20260507233056 | 17 | 146 | 1.6 | 11.3 | 0.00 | 0.00 | 0.00 | 36 | 1011.6 |
| 20260507231556 | 17 | 155 | 4.8 | 14.5 | 0.00 | 0.00 | 0.00 | 35 | 1011.5 |
| 20260507230053 | 17 | 140 | 6.4 | 17.7 | 0.00 | 0.00 | 0.00 | 34 | 1011.6 |
| 20260507224557 | 17 | 178 | 9.7 | 16.1 | 0.00 | 0.00 | 0.00 | 35 | 1011.5 |
| 20260507223051 | 17 | 108 | 8.0 | 20.9 | 0.00 | 0.00 | 0.00 | 36 | 1011.4 |
| 20260507221549 | 17 | 154 | 9.7 | 29.0 | 0.00 | 0.00 | 0.00 | 38 | 1011.3 |
| 20260507220049 | 18 | 54 | 9.7 | 30.6 | 0.00 | 0.00 | 0.00 | 38 | 1011.2 |
| 20260507214523 | 17 | 121 | 6.4 | 17.7 | 0.00 | 0.00 | 0.00 | 39 | 1011.1 |
| 20260507213018 | 18 | 102 | 6.4 | 20.9 | 0.00 | 0.00 | 0.00 | 43 | 1011.0 |
| 20260507211515 | 17 | 77 | 6.4 | 17.7 | 0.00 | 0.00 | 0.00 | 43 | 1010.8 |
| 20260507210014 | 17 | 55 | 8.0 | 24.1 | 0.00 | 0.00 | 0.00 | 41 | 1010.7 |
| 20260507204512 | 18 | 101 | 9.7 | 20.9 | 0.00 | 0.00 | 0.00 | 42 | 1010.7 |
| 20260507203011 | 18 | 55 | 14.5 | 22.5 | 0.00 | 0.00 | 0.00 | 41 | 1010.5 |
| 20260507201510 | 18 | 360 | 16.1 | 37.0 | 0.00 | 0.00 | 0.00 | 43 | 1010.6 |
| 20260507200007 | 18 | 24 | 9.7 | 22.5 | 0.00 | 0.00 | 0.00 | 43 | 1010.8 |
| 20260507194505 | 18 | 154 | 8.0 | 19.3 | 0.00 | 0.00 | 0.00 | 43 | 1010.9 |
| 20260507193003 | 17 | 13 | 9.7 | 17.7 | 0.00 | 0.00 | 0.00 | 44 | 1011.0 |
| 20260507191503 | 17 | 121 | 3.2 | 17.7 | 0.00 | 0.00 | 0.00 | 46 | 1011.3 |
| 20260507190059 | 17 | 93 | 6.4 | 16.1 | 0.00 | 0.00 | 0.00 | 45 | 1011.4 |
| 20260507184605 | 17 | 71 | 11.3 | 24.1 | 0.00 | 0.00 | 0.00 | 46 | 1011.5 |
| 20260507183056 | 17 | 58 | 12.9 | 20.9 | 0.00 | 0.00 | 0.00 | 49 | 1011.5 |
| 20260507181603 | 17 | 166 | 9.7 | 20.9 | 0.00 | 0.00 | 0.00 | 48 | 1011.6 |
| 20260507180051 | 16 | 165 | 8.0 | 20.9 | 0.00 | 0.00 | 0.00 | 49 | 1011.7 |
| 20260507174555 | 17 | 66 | 12.9 | 20.9 | 0.00 | 0.00 | 0.00 | 50 | 1011.7 |
| 20260507173048 | 17 | 40 | 11.3 | 20.9 | 0.00 | 0.00 | 0.00 | 50 | 1011.8 |
| 20260507171545 | 16 | 117 | 6.4 | 17.7 | 0.00 | 0.00 | 0.00 | 52 | 1012.0 |
| 20260507170021 | 16 | 121 | 9.7 | 22.5 | 0.00 | 0.00 | 0.00 | 53 | 1012.3 |
| 20260507164513 | 16 | 63 | 12.9 | 20.9 | 0.00 | 0.00 | 0.00 | 52 | 1012.2 |
| 20260507163008 | 16 | 150 | 4.8 | 17.7 | 0.00 | 0.00 | 0.00 | 52 | 1012.4 |
| 20260507161507 | 16 | 182 | 6.4 | 14.5 | 0.00 | 0.00 | 0.00 | 54 | 1012.6 |
| 20260507160012 | 15 | 32 | 6.4 | 12.9 | 0.00 | 0.00 | 0.00 | 56 | 1012.6 |
| 20260507154504 | 15 | 188 | 1.6 | 12.9 | 0.00 | 0.00 | 0.00 | 56 | 1012.8 |
| 20260507153103 | 15 | 69 | 8.0 | 12.9 | 0.00 | 0.00 | 0.00 | 56 | 1012.9 |
| 20260507151559 | 15 | 252 | 11.3 | 20.9 | 0.00 | 0.00 | 0.00 | 58 | 1012.7 |
| 20260507150057 | 14 | 99 | 1.6 | 12.9 | 0.00 | 0.03 | 0.00 | 57 | 1012.9 |
| 20260507144557 | 14 | 34 | 4.8 | 14.5 | 0.00 | 0.03 | 0.00 | 58 | 1013.0 |
| 20260507143050 | 13 | 146 | 4.8 | 12.9 | 0.00 | 0.03 | 0.00 | 60 | 1013.0 |
| 20260507141547 | 13 | 173 | 3.2 | 20.9 | 0.00 | 0.03 | 0.00 | 59 | 1013.0 |
| 20260507140049 | 13 | 176 | 6.4 | 14.5 | 0.00 | 0.05 | 0.00 | 62 | 1013.2 |
| 20260507134544 | 12 | 315 | 1.6 | 9.7 | 0.00 | 0.05 | 0.00 | 77 | 1013.2 |
| 20260507133036 | 12 | 308 | 1.6 | 11.3 | 0.00 | 0.05 | 0.00 | 78 | 1013.6 |
| 20260507131550 | 11 | 273 | 0.0 | 0.0 | 0.00 | 0.05 | 0.00 | 83 | 1013.5 |
| 20260507130031 | 11 | 173 | 0.0 | 0.0 | 0.00 | 0.05 | 0.00 | 87 | 1013.5 |
| 20260507124534 | 10 | 185 | 0.0 | 0.0 | 0.00 | 0.05 | 0.00 | 92 | 1013.4 |
| 20260507123029 | 10 | 186 | 0.0 | 0.0 | 0.00 | 0.05 | 0.00 | 93 | 1013.4 |
| 20260507121531 | 10 | 186 | 0.0 | 0.0 | 0.00 | 0.05 | 0.00 | 94 | 1013.5 |
| 20260507120038 | 10 | 186 | 0.0 | 0.0 | 0.00 | 0.08 | 0.00 | 94 | 1013.4 |
| 20260507114527 | 10 | 186 | 0.0 | 0.0 | 0.00 | 0.08 | 0.00 | 94 | 1013.3 |
| 20260507113100 | 9 | 186 | 0.0 | 0.0 | 0.00 | 0.08 | 0.00 | 94 | 1013.5 |
| 20260507111604 | 9 | 186 | 0.0 | 0.0 | 0.00 | 0.08 | 0.00 | 94 | 1013.3 |
| 20260507110055 | 9 | 186 | 0.0 | 0.0 | 0.00 | 0.18 | 0.00 | 93 | 1013.0 |
| 20260507104552 | 9 | 186 | 0.0 | 0.0 | 0.00 | 0.18 | 0.00 | 93 | 1012.9 |
| 20260507103052 | 9 | 186 | 0.0 | 0.0 | 0.00 | 0.18 | 0.00 | 93 | 1012.8 |
| 20260507101602 | 9 | 186 | 0.0 | 0.0 | 0.00 | 0.18 | 0.00 | 93 | 1012.8 |
| 20260507100049 | 8 | 186 | 0.0 | 0.0 | 0.00 | 0.33 | 0.00 | 92 | 1012.5 |
| 20260507094549 | 8 | 186 | 0.0 | 0.0 | 0.00 | 0.33 | 0.00 | 92 | 1012.5 |
| 20260507093053 | 9 | 185 | 0.0 | 0.0 | 0.00 | 0.33 | 0.00 | 93 | 1012.7 |
| 20260507091551 | 9 | 185 | 0.0 | 0.0 | 0.00 | 0.33 | 0.00 | 93 | 1013.0 |
| 20260507090043 | 9 | 185 | 0.0 | 0.0 | 0.00 | 0.43 | 0.00 | 92 | 1012.8 |
| 20260507084543 | 9 | 185 | 0.0 | 0.0 | 0.00 | 0.43 | 0.00 | 92 | 1012.5 |
| 20260507083041 | 9 | 185 | 0.0 | 0.0 | 0.00 | 0.43 | 0.00 | 92 | 1012.5 |
| 20260507081547 | 9 | 185 | 0.0 | 0.0 | 0.00 | 0.43 | 0.00 | 92 | 1012.7 |
| 20260507080008 | 10 | 185 | 0.0 | 0.0 | 0.00 | 0.79 | 0.00 | 91 | 1012.5 |
| 20260507074515 | 10 | 185 | 0.0 | 0.0 | 0.00 | 0.79 | 0.00 | 92 | 1012.8 |
| 20260507073004 | 10 | 185 | 0.0 | 0.0 | 0.00 | 0.79 | 0.00 | 91 | 1012.6 |
| 20260507071504 | 10 | 185 | 0.0 | 0.0 | 0.00 | 0.79 | 0.00 | 91 | 1012.7 |
| 20260507070004 | 10 | 185 | 0.0 | 0.0 | 0.00 | 0.89 | 0.00 | 91 | 1012.5 |
| 20260507064501 | 10 | 184 | 0.0 | 0.0 | 0.00 | 0.89 | 0.00 | 91 | 1012.9 |
| 20260507063100 | 10 | 184 | 0.0 | 0.0 | 0.00 | 0.89 | 0.00 | 91 | 1012.8 |
| 20260507061556 | 10 | 184 | 0.0 | 0.0 | 0.00 | 0.89 | 0.00 | 91 | 1012.7 |
| 20260507060055 | 10 | 184 | 0.0 | 0.0 | 0.00 | 0.94 | 0.00 | 91 | 1012.8 |
| 20260507054635 | 11 | 184 | 0.0 | 0.0 | 0.00 | 0.94 | 0.00 | 90 | 1012.9 |